Regional Weather Roundup
Issued by NWS

Home | Current Version | Previous Version | Graphics & Text | Print | Product List | Glossary On
Versions: 1 2 3 4 5 6 7 8 9 10 11 12 13 14 15 16 17 18 19 20 21 22 23 24 25 26 27 28 29 30 31 32 33 34 35 36 37 38 39 40 41 42 43 44 45 46 47 48 49 50
177
ASUS43 KDMX 021406
RWRIA

WEATHER ROUNDUP FOR IOWA
NATIONAL WEATHER SERVICE DES MOINES IA
800 AM CST FRI DEC 02 2016

NOTE: "FAIR" INDICATES FEW OR NO CLOUDS BELOW 12,000 FEET WITH NO
SIGNIFICANT WEATHER AND/OR OBSTRUCTIONS TO VISIBILITY.

* - THESE STATIONS ARE NOT NWS STATIONS...THUS NOT UNDER NWS
QUALITY CONTROL.  THEY ALSO DO NOT REPORT WEATHER SUCH
AS PRECIPITATION OR FOG.

IAZ001>003-012>014-020>022-031>034-043>046-021500-
   NORTHWEST IOWA

CITY           SKY/WX    TMP DP  RH WIND       PRES   REMARKS
CARROLL *      CLOUDY    34  34 100 NW6       30.20R WCI  29
CHEROKEE *     CLOUDY    33  33  99 NW3       30.20R
DENISON *      CLOUDY    32  32 100 NW6       30.19R WCI  26
LE MARS *      CLOUDY    34  32  93 NW6       30.22R WCI  29
ORANGE CITY *  CLOUDY    32  32 100 CALM      30.20R
SHELDON *      CLOUDY    32  32 100 N7        30.19R WCI  26
SIOUX CITY     CLOUDY    34  32  92 NW6       30.22R WCI  29
SPENCER        CLOUDY    32  29  88 NW8       30.20R WCI  25
STORM LAKE *   CLOUDY    32  32 100 NW6       30.19R FOG     WCI  26
$$

IAZ055>058-069>071-079>083-090>094-021500-
   SOUTHWEST IOWA

CITY           SKY/WX    TMP DP  RH WIND       PRES   REMARKS
ATLANTIC *     PTCLDY    30  28  93 CALM      30.22R
AUDUBON *      CLOUDY    34  28  80 CALM      30.21R
CLARINDA *       N/A     23  23 100 CALM      30.26R
COUNCIL BLFS * CLEAR     28  28 100 CALM      30.23R
CRESTON *      PTCLDY    28  28 100 W5        30.22R FOG     WCI  23
HARLAN  *      CLOUDY    28  28 100 W7        30.25R WCI  21
LAMONI         CLOUDY    29  26  89 W6        30.22R WCI  23
RED OAK *      CLEAR     27  27 100 CALM      30.24R
SHENANDOAH *   CLEAR     23  23 100 CALM      30.25R
$$

IAZ047>049-059>061-072>074-084-021500-
   CENTRAL IOWA

CITY           SKY/WX    TMP DP  RH WIND       PRES   REMARKS
AMES           CLOUDY    35  33  92 NW5       30.20R WCI  31
ANKENY *       CLOUDY    36  36 100 W5        30.22R WCI  32
BOONE *        CLOUDY    34  32  93 NW6       30.19R WCI  29
CHARITON *       N/A     32  30  93 W6        30.21R WCI  26
DES MOINES     CLOUDY    36  31  82 NW6       30.21R WCI  31
GRINNELL*      CLOUDY    34  32  94 W3        30.20R
KNOXVILLE *    CLOUDY    34  30  86 W7        30.20R WCI  28
MARSHALLTOWN   CLOUDY    34  32  92 N8        30.18R WCI  27
NEWTON *       CLOUDY    34  32  93 CALM      30.19R
PELLA *        CLOUDY    35  32  89 W5        30.22R WCI  31
PERRY *        CLOUDY    34  34  99 W6        30.21R WCI  29
$$

IAZ004>006-015-016-023>025-035-036-021500-
   NORTH CENTRAL IOWA

CITY           SKY/WX    TMP DP  RH WIND       PRES   REMARKS
ALGONA *       CLOUDY    32  28  86 N8        30.19R WCI  25
CLARION *      CLOUDY    32  32 100 N10       30.19R WCI  24
ESTHERVILLE    CLOUDY    30  28  92 NW10      30.19R WCI  21
FORT DODGE *   CLOUDY    34  28  80 N6        30.20R WCI  29
MASON CITY     CLOUDY    31  26  82 NW10      30.19R WCI  22
FOREST CITY *  CLOUDY    32  28  86 NW15      30.18R WCI  22
WEBSTER CITY * CLOUDY    34  34 100 N7        30.18R WCI  28
IOWA FALLS *   CLOUDY    33  31  92 NW6       30.19R WCI  28
$$

IAZ007>011-017>019-026>030-037>042-050>054-066-021500-
   NORTHEAST IOWA

CITY           SKY/WX    TMP DP  RH WIND       PRES   REMARKS
CEDAR RAPIDS   CLOUDY    34  34 100 NW10      30.17R WCI  26
CHARLES CITY * CLOUDY    32  28  86 NW8       30.18R WCI  25
CLINTON *      CLOUDY    35  34  96 W9        30.17R WCI  28
DECORAH *      CLOUDY    32  27  80 N9        30.14R WCI  24
DUBUQUE        MOCLDY    33  31  92 W8        30.14R WCI  26
MONTICELLO *   CLOUDY    36  32  87 NW10      30.16R WCI  28
OELWEIN *      CLOUDY    32  30  93 NW13G20   30.17R WCI  22
WATERLOO       CLOUDY    33  27  78 NW8       30.18R WCI  26
$$

IAZ064-065-067-068-078-021500-
   EAST CENTRAL IOWA

CITY           SKY/WX    TMP DP  RH WIND       PRES   REMARKS
DAVENPORT      CLOUDY    36  33  89 W8        30.17R WCI  30
IOWA CITY      CLOUDY    36  32  85 W7        30.20R WCI  30
MUSCATINE *    CLOUDY    37  32  81 NW8       30.20R WCI  31
QUAD CITIES    CLOUDY    38  32  79 W7        30.17R WCI  33
$$

IAZ062-063-075>077-085>089-095>099-021500-
   SOUTHEAST IOWA

CITY           SKY/WX    TMP DP  RH WIND       PRES   REMARKS
BURLINGTON     CLOUDY    36  32  85 W6        30.20R WCI  31
FAIRFIELD *    CLOUDY    34  30  86 W7        30.20R WCI  28
FORT MADISON * CLOUDY    37  32  81 W5        30.21R WCI  34
KEOKUK *       CLOUDY    36  32  87 W8        30.20R WCI  29
OSKALOOSA *      N/A     33  32  96 W6        30.21R FOG     WCI  27
CENTERVILLE *    N/A     30  27  86 CALM      30.22R
OTTUMWA        CLOUDY    35  30  82 W6        30.21R WCI  30
WASHINGTON *   CLOUDY    36  32  87 W6        30.20R WCI  31
$$

ABBREVIATIONS USED IN REMARKS
   TC - TEMPERATURES IN CELSIUS
  WCI - WIND CHILL INDEX
   HX - HEAT INDEX
  VSB - VISIBILITY
$$





USA.gov is the U.S. government's official web portal to all federal, state and local government web resources and services.